status,avgMeasuredTime,avgSpeed,extID,medianMeasuredTime,TIMESTAMP,vehicleCount,_id,REPORT_ID
OK,72,59,922,72,2014-08-01T08:00:00,7,20746977,201908
OK,128,33,922,128,2014-08-01T08:05:00,6,20747426,201908
OK,89,48,922,89,2014-08-01T08:10:00,8,20747799,201908
OK,81,52,922,81,2014-08-01T08:15:00,6,20748248,201908
OK,119,36,922,119,2014-08-01T08:20:00,5,20748697,201908
OK,121,35,922,121,2014-08-01T08:25:00,10,20749146,201908
OK,109,39,922,109,2014-08-01T08:30:00,9,20749595,201908
OK,71,60,922,71,2014-08-01T08:35:00,3,20750044,201908
OK,135,31,922,135,2014-08-01T08:40:00,1,20750493,201908
OK,103,41,922,103,2014-08-01T08:45:00,5,20750942,201908
OK,87,49,922,87,2014-08-01T08:50:00,6,20751391,201908
OK,84,51,922,84,2014-08-01T08:55:00,5,20751840,201908
OK,84,51,922,84,2014-08-01T09:00:00,5,20752289,201908
OK,93,46,922,93,2014-08-01T09:05:00,3,20752738,201908
OK,81,52,922,81,2014-08-01T09:10:00,10,20753187,201908
OK,77,55,922,77,2014-08-01T09:20:00,3,20754085,201908
OK,84,51,922,84,2014-08-01T09:25:00,7,20754534,201908
OK,80,53,922,80,2014-08-01T09:30:00,10,20754983,201908
OK,80,53,922,80,2014-08-01T09:35:00,10,20755432,201908
OK,120,35,922,120,2014-08-01T09:40:00,9,20755881,201908
OK,120,35,922,120,2014-08-01T09:45:00,7,20756330,201908
OK,75,57,922,75,2014-08-01T09:50:00,4,20756779,201908
OK,74,57,922,74,2014-08-01T09:55:00,2,20757228,201908
OK,87,49,922,87,2014-08-01T10:00:00,2,20757677,201908
OK,69,62,922,69,2014-08-01T10:05:00,3,20758126,201908
OK,75,57,922,75,2014-08-01T10:10:00,6,20758575,201908
OK,99,43,922,99,2014-08-01T10:15:00,10,20759024,201908
OK,123,34,922,123,2014-08-01T10:20:00,6,20759473,201908
OK,76,56,922,76,2014-08-01T10:25:00,5,20759922,201908
OK,102,42,922,102,2014-08-01T10:30:00,9,20760371,201908
OK,115,37,922,115,2014-08-01T10:35:00,7,20760820,201908
OK,85,50,922,85,2014-08-01T10:40:00,5,20761269,201908
OK,86,49,922,86,2014-08-01T10:45:00,3,20761718,201908
OK,135,31,922,135,2014-08-01T10:50:00,2,20762167,201908
OK,112,38,922,112,2014-08-01T10:55:00,6,20762616,201908
OK,89,48,922,89,2014-08-01T11:00:00,4,20763065,201908
OK,114,37,922,114,2014-08-01T11:05:00,3,20763514,201908
OK,114,37,922,114,2014-08-01T11:10:00,5,20763963,201908
OK,127,33,922,127,2014-08-01T11:15:00,3,20764411,201908
OK,132,32,922,132,2014-08-01T11:20:00,1,20764860,201908
OK,142,30,922,142,2014-08-01T11:25:00,1,20765309,201908
OK,142,30,922,142,2014-08-01T11:30:00,1,20765758,201908
OK,117,36,922,117,2014-08-01T11:35:00,3,20766207,201908
OK,117,36,922,117,2014-08-01T11:40:00,3,20766656,201908
OK,84,51,922,84,2014-08-01T11:45:00,2,20767105,201908
OK,96,44,922,96,2014-08-01T11:50:00,3,20767554,201908
OK,105,40,922,105,2014-08-01T11:55:00,4,20768003,201908
OK,111,38,922,111,2014-08-01T12:00:00,3,20768452,201908
OK,105,40,922,105,2014-08-01T12:05:00,2,20768901,201908
OK,81,52,922,81,2014-08-01T12:10:00,5,20769350,201908
OK,72,59,922,72,2014-08-01T12:15:00,7,20769799,201908
OK,71,60,922,71,2014-08-01T12:20:00,6,20770248,201908
OK,97,44,922,97,2014-08-01T12:25:00,7,20770697,201908
OK,118,36,922,118,2014-08-01T12:30:00,6,20771146,201908
OK,97,44,922,97,2014-08-01T12:35:00,2,20771595,201908
OK,84,51,922,84,2014-08-01T12:40:00,2,20772044,201908
OK,82,52,922,82,2014-08-01T12:45:00,8,20772493,201908
OK,85,50,922,85,2014-08-01T12:50:00,10,20772942,201908
OK,82,52,922,82,2014-08-01T12:55:00,5,20773391,201908
OK,75,57,922,75,2014-08-01T13:00:00,5,20773840,201908
OK,107,40,922,107,2014-08-01T13:05:00,6,20774289,201908
OK,120,35,922,120,2014-08-01T13:10:00,6,20774738,201908
OK,113,37,922,113,2014-08-01T13:15:00,6,20775187,201908
OK,113,37,922,113,2014-08-01T13:20:00,4,20775636,201908
OK,89,48,922,89,2014-08-01T13:25:00,5,20776085,201908
OK,89,48,922,89,2014-08-01T13:30:00,7,20776534,201908
OK,79,54,922,79,2014-08-01T13:35:00,6,20776983,201908
OK,109,39,922,109,2014-08-01T13:40:00,5,20777432,201908
OK,109,39,922,109,2014-08-01T13:45:00,4,20777881,201908
OK,106,40,922,106,2014-08-01T13:50:00,1,20778330,201908
OK,64,66,922,64,2014-08-01T14:00:00,1,20779228,201908
OK,64,66,922,64,2014-08-01T14:05:00,0,20779677,201908
OK,87,49,922,87,2014-08-01T14:10:00,3,20780126,201908
OK,87,49,922,87,2014-08-01T14:15:00,3,20780575,201908
OK,97,44,922,97,2014-08-01T14:20:00,0,20781024,201908
OK,74,57,922,74,2014-08-01T14:25:00,2,20781473,201908
OK,61,70,922,61,2014-08-01T14:30:00,4,20781922,201908
OK,61,70,922,61,2014-08-01T14:35:00,2,20782371,201908
OK,61,70,922,61,2014-08-01T14:40:00,0,20782820,201908
OK,142,30,922,142,2014-08-01T14:45:00,1,20783269,201908
OK,92,46,922,92,2014-08-01T14:50:00,4,20783718,201908
OK,99,43,922,99,2014-08-01T14:55:00,5,20784167,201908
OK,103,41,922,103,2014-08-01T15:00:00,3,20784616,201908
OK,64,66,922,64,2014-08-01T15:05:00,1,20785065,201908
OK,64,66,922,64,2014-08-01T15:10:00,0,20785514,201908
OK,94,45,922,94,2014-08-01T15:15:00,2,20785963,201908
OK,94,45,922,94,2014-08-01T15:20:00,2,20786412,201908
OK,105,40,922,105,2014-08-01T15:25:00,0,20786861,201908
OK,105,40,922,105,2014-08-01T15:30:00,0,20787310,201908
OK,50,85,922,50,2014-08-01T15:35:00,1,20787759,201908
OK,94,45,922,94,2014-08-01T15:40:00,4,20788208,201908
OK,97,44,922,97,2014-08-01T15:45:00,5,20788657,201908
OK,142,30,922,142,2014-08-01T15:50:00,2,20789106,201908
OK,121,35,922,121,2014-08-01T15:55:00,4,20789555,201908
OK,116,36,922,116,2014-08-01T16:00:00,3,20790004,201908
OK,107,40,922,107,2014-08-01T16:05:00,2,20790453,201908
OK,107,40,922,107,2014-08-01T16:10:00,2,20790902,201908
OK,112,38,922,112,2014-08-01T16:15:00,0,20791351,201908
OK,112,38,922,112,2014-08-01T16:20:00,0,20791800,201908
OK,108,39,922,108,2014-08-01T16:25:00,1,20792249,201908
OK,108,39,922,108,2014-08-01T16:30:00,1,20792698,201908
OK,72,59,922,72,2014-08-01T16:35:00,1,20793147,201908
OK,72,59,922,72,2014-08-01T16:40:00,1,20793596,201908
OK,72,59,922,72,2014-08-01T16:45:00,0,20794045,201908
OK,95,45,922,95,2014-08-01T16:50:00,2,20794494,201908
OK,95,45,922,95,2014-08-01T16:55:00,2,20794943,201908
OK,81,52,922,81,2014-08-01T17:00:00,3,20795392,201908
OK,85,50,922,85,2014-08-01T17:05:00,4,20795841,201908
OK,72,59,922,72,2014-08-01T17:10:00,2,20796290,201908
OK,111,38,922,111,2014-08-01T17:15:00,5,20796739,201908
OK,111,38,922,111,2014-08-01T17:20:00,5,20797188,201908
OK,111,38,922,111,2014-08-01T17:25:00,1,20797637,201908
OK,111,38,922,111,2014-08-01T17:30:00,0,20798086,201908
OK,115,37,922,115,2014-08-01T17:35:00,1,20798535,201908
OK,115,37,922,115,2014-08-01T17:40:00,1,20798984,201908
OK,115,37,922,115,2014-08-01T17:45:00,0,20799433,201908
OK,115,37,922,115,2014-08-01T17:50:00,0,20799882,201908
OK,115,37,922,115,2014-08-01T17:55:00,0,20800331,201908
OK,115,37,922,115,2014-08-01T18:00:00,0,20800780,201908
OK,115,37,922,115,2014-08-01T18:05:00,0,20801229,201908
OK,115,37,922,115,2014-08-01T18:10:00,0,20801678,201908
OK,75,57,922,75,2014-08-01T18:15:00,2,20802127,201908
OK,97,44,922,97,2014-08-01T18:20:00,5,20802576,201908
OK,143,29,922,143,2014-08-01T18:25:00,1,20803025,201908
OK,143,29,922,143,2014-08-01T18:30:00,0,20803474,201908
OK,110,38,922,110,2014-08-01T18:35:00,1,20803923,201908
OK,110,38,922,110,2014-08-01T18:40:00,1,20804372,201908
OK,110,38,922,110,2014-08-01T18:45:00,0,20804821,201908
OK,78,54,922,78,2014-08-01T18:50:00,1,20805270,201908
OK,78,54,922,78,2014-08-01T18:55:00,1,20805719,201908
OK,78,54,922,78,2014-08-01T19:00:00,0,20806168,201908
OK,78,54,922,78,2014-08-01T19:05:00,0,20806617,201908
OK,78,54,922,78,2014-08-01T19:10:00,0,20807066,201908
OK,105,40,922,105,2014-08-01T19:15:00,1,20807515,201908
OK,82,52,922,82,2014-08-01T19:20:00,2,20807964,201908
OK,60,71,922,60,2014-08-01T19:25:00,1,20808413,201908
OK,60,71,922,60,2014-08-01T19:30:00,0,20808862,201908
OK,70,61,922,70,2014-08-01T19:35:00,1,20809311,201908
OK,69,62,922,69,2014-08-01T19:40:00,2,20809760,201908
OK,68,63,922,68,2014-08-01T19:45:00,1,20810209,201908
OK,68,63,922,68,2014-08-01T19:50:00,0,20810658,201908
OK,68,63,922,68,2014-08-01T19:55:00,0,20811107,201908
OK,68,63,922,68,2014-08-01T22:00:00,0,20816836,201908
OK,68,63,922,68,2014-08-01T22:05:00,0,20817283,201908
OK,104,41,922,104,2014-08-02T00:00:00,1,20823275,201908
OK,104,41,922,104,2014-08-02T00:05:00,0,20823724,201908
OK,104,41,922,104,2014-08-02T00:10:00,0,20824173,201908
OK,104,41,922,104,2014-08-02T00:15:00,0,20824622,201908
OK,104,41,922,104,2014-08-02T00:20:00,0,20825071,201908
OK,104,41,922,104,2014-08-02T00:25:00,0,20825520,201908
OK,104,41,922,104,2014-08-02T00:30:00,0,20825969,201908
OK,104,41,922,104,2014-08-02T00:35:00,0,20826418,201908
OK,104,41,922,104,2014-08-02T00:40:00,0,20826867,201908
OK,104,41,922,104,2014-08-02T00:45:00,0,20827316,201908
OK,62,69,922,62,2014-08-02T00:50:00,1,20827765,201908
OK,62,69,922,62,2014-08-02T00:55:00,1,20828214,201908
OK,62,69,922,62,2014-08-02T01:00:00,0,20828663,201908
OK,62,69,922,62,2014-08-02T01:05:00,0,20829112,201908
OK,62,69,922,62,2014-08-02T01:10:00,0,20829561,201908
OK,62,69,922,62,2014-08-02T01:15:00,0,20830010,201908
OK,62,69,922,62,2014-08-02T01:20:00,0,20830459,201908
OK,62,69,922,62,2014-08-02T01:25:00,0,20830908,201908
OK,62,69,922,62,2014-08-02T01:30:00,0,20831357,201908
OK,62,69,922,62,2014-08-02T01:35:00,0,20831806,201908
OK,62,69,922,62,2014-08-02T01:40:00,0,20832255,201908
OK,62,69,922,62,2014-08-02T01:45:00,0,20832704,201908
OK,62,69,922,62,2014-08-02T01:50:00,0,20833153,201908
OK,62,69,922,62,2014-08-02T01:55:00,0,20833602,201908
OK,62,69,922,62,2014-08-02T02:00:00,0,20834051,201908
OK,62,69,922,62,2014-08-02T02:05:00,0,20834500,201908
OK,62,69,922,62,2014-08-02T02:10:00,0,20834949,201908
OK,62,69,922,62,2014-08-02T02:15:00,0,20835398,201908
OK,62,69,922,62,2014-08-02T02:20:00,0,20835847,201908
OK,62,69,922,62,2014-08-02T02:25:00,0,20836296,201908
OK,62,69,922,62,2014-08-02T02:30:00,0,20836745,201908
OK,62,69,922,62,2014-08-02T02:35:00,0,20837194,201908
OK,62,69,922,62,2014-08-02T02:40:00,0,20837643,201908
OK,62,69,922,62,2014-08-02T02:45:00,0,20838092,201908
OK,62,69,922,62,2014-08-02T02:50:00,0,20838541,201908
OK,62,69,922,62,2014-08-02T02:55:00,0,20838990,201908
OK,62,69,922,62,2014-08-02T03:00:00,0,20839439,201908
OK,62,69,922,62,2014-08-02T03:05:00,0,20839888,201908
OK,62,69,922,62,2014-08-02T03:10:00,0,20840337,201908
OK,62,69,922,62,2014-08-02T03:15:00,0,20840786,201908
OK,62,69,922,62,2014-08-02T03:20:00,0,20841235,201908
OK,62,69,922,62,2014-08-02T03:25:00,0,20841684,201908
OK,62,69,922,62,2014-08-02T03:30:00,0,20842133,201908
OK,62,69,922,62,2014-08-02T03:35:00,0,20842582,201908
OK,62,69,922,62,2014-08-02T03:40:00,0,20843031,201908
OK,62,69,922,62,2014-08-02T03:45:00,0,20843480,201908
OK,62,69,922,62,2014-08-02T03:50:00,0,20843929,201908
OK,62,69,922,62,2014-08-02T03:55:00,0,20844378,201908
OK,85,50,922,85,2014-08-02T06:00:00,2,20851832,201908
OK,85,50,922,85,2014-08-02T06:05:00,2,20852281,201908
OK,84,51,922,84,2014-08-02T06:10:00,0,20852730,201908
OK,84,51,922,84,2014-08-02T06:15:00,0,20853179,201908
OK,113,37,922,113,2014-08-02T06:20:00,1,20853628,201908
OK,113,37,922,113,2014-08-02T06:25:00,1,20854077,201908
OK,113,37,922,113,2014-08-02T06:30:00,0,20854526,201908
OK,113,37,922,113,2014-08-02T06:35:00,0,20854975,201908
OK,113,37,922,113,2014-08-02T06:40:00,0,20855424,201908
OK,77,55,922,77,2014-08-02T06:45:00,1,20855873,201908
OK,77,55,922,77,2014-08-02T06:50:00,1,20856322,201908
OK,77,55,922,77,2014-08-02T06:55:00,0,20856771,201908
OK,77,55,922,77,2014-08-02T07:00:00,0,20857220,201908
OK,77,55,922,77,2014-08-02T07:05:00,0,20857669,201908
OK,112,38,922,112,2014-08-02T07:10:00,1,20858118,201908
OK,98,43,922,98,2014-08-02T07:15:00,2,20858567,201908
OK,86,49,922,86,2014-08-02T07:20:00,2,20859016,201908
OK,87,49,922,87,2014-08-02T07:25:00,1,20859465,201908
OK,108,39,922,108,2014-08-02T07:30:00,2,20859914,201908
OK,102,42,922,102,2014-08-02T07:35:00,4,20860363,201908
OK,89,48,922,89,2014-08-02T07:40:00,2,20860812,201908
OK,74,57,922,74,2014-08-02T07:45:00,3,20861261,201908
OK,125,34,922,125,2014-08-02T07:50:00,4,20861710,201908
OK,202,21,922,202,2014-08-02T07:55:00,1,20862159,201908
OK,114,37,922,114,2014-08-02T08:00:00,2,20862608,201908
OK,114,37,922,114,2014-08-02T08:05:00,2,20863057,201908
OK,85,50,922,85,2014-08-02T08:10:00,1,20863506,201908
OK,89,48,922,89,2014-08-02T08:15:00,4,20863955,201908
OK,110,38,922,110,2014-08-02T08:20:00,6,20864404,201908
OK,114,37,922,114,2014-08-02T08:25:00,4,20864853,201908
OK,103,41,922,103,2014-08-02T08:30:00,3,20865302,201908
OK,89,48,922,89,2014-08-02T08:35:00,2,20865751,201908
OK,90,47,922,90,2014-08-02T08:40:00,2,20866200,201908
OK,105,40,922,105,2014-08-02T08:45:00,3,20866649,201908
OK,118,36,922,118,2014-08-02T08:50:00,2,20867098,201908
OK,121,35,922,121,2014-08-02T08:55:00,2,20867547,201908
OK,109,39,922,109,2014-08-02T09:00:00,3,20867996,201908
OK,106,40,922,106,2014-08-02T09:05:00,2,20868445,201908
OK,87,49,922,87,2014-08-02T09:10:00,2,20868894,201908
OK,83,51,922,83,2014-08-02T09:15:00,4,20869343,201908
OK,76,56,922,76,2014-08-02T09:20:00,2,20869792,201908
OK,76,56,922,76,2014-08-02T09:25:00,0,20870241,201908
OK,76,56,922,76,2014-08-02T09:30:00,0,20870690,201908
OK,105,40,922,105,2014-08-02T09:35:00,2,20871139,201908
OK,113,37,922,113,2014-08-02T09:40:00,3,20871588,201908
OK,121,35,922,121,2014-08-02T09:45:00,3,20872037,201908
OK,92,46,922,92,2014-08-02T09:50:00,3,20872486,201908
OK,71,60,922,71,2014-08-02T09:55:00,4,20872935,201908
OK,83,51,922,83,2014-08-02T10:00:00,3,20873384,201908
OK,106,40,922,106,2014-08-02T10:05:00,3,20873833,201908
OK,78,54,922,78,2014-08-02T10:10:00,4,20874282,201908
OK,87,49,922,87,2014-08-02T10:15:00,4,20874731,201908
OK,120,35,922,120,2014-08-02T10:20:00,3,20875180,201908
OK,105,40,922,105,2014-08-02T10:25:00,3,20875629,201908
OK,90,47,922,90,2014-08-02T10:30:00,4,20876078,201908
OK,79,54,922,79,2014-08-02T10:35:00,3,20876527,201908
OK,77,55,922,77,2014-08-02T10:40:00,2,20876976,201908
OK,102,42,922,102,2014-08-02T10:45:00,5,20877425,201908
OK,84,51,922,84,2014-08-02T10:50:00,7,20877874,201908
OK,84,51,922,84,2014-08-02T10:55:00,3,20878323,201908
OK,98,43,922,98,2014-08-02T11:00:00,2,20878772,201908
OK,134,31,922,134,2014-08-02T11:05:00,3,20879221,201908
OK,134,31,922,134,2014-08-02T11:10:00,2,20879670,201908
OK,113,37,922,113,2014-08-02T11:15:00,3,20880119,201908
OK,113,37,922,113,2014-08-02T11:20:00,3,20880568,201908
OK,79,54,922,79,2014-08-02T11:25:00,1,20881017,201908
OK,76,56,922,76,2014-08-02T11:30:00,4,20881466,201908
OK,74,57,922,74,2014-08-02T11:35:00,3,20881915,201908
OK,102,42,922,102,2014-08-02T11:40:00,0,20882364,201908
OK,102,42,922,102,2014-08-02T11:45:00,0,20882813,201908
OK,102,42,922,102,2014-08-02T11:50:00,0,20883262,201908
OK,80,53,922,80,2014-08-02T11:55:00,2,20883711,201908
OK,80,53,922,80,2014-08-02T12:00:00,2,20884160,201908
OK,101,42,922,101,2014-08-02T12:05:00,3,20884609,201908
OK,94,45,922,94,2014-08-02T12:10:00,6,20885058,201908
OK,83,51,922,83,2014-08-02T12:15:00,4,20885507,201908
OK,98,43,922,98,2014-08-02T12:20:00,4,20885956,201908
OK,88,48,922,88,2014-08-02T12:25:00,4,20886405,201908
OK,106,40,922,106,2014-08-02T12:30:00,2,20886854,201908
OK,105,40,922,105,2014-08-02T12:35:00,4,20887303,201908
OK,91,47,922,91,2014-08-02T12:40:00,4,20887752,201908
OK,70,61,922,70,2014-08-02T12:45:00,2,20888201,201908
OK,93,46,922,93,2014-08-02T12:50:00,5,20888650,201908
OK,93,46,922,93,2014-08-02T12:55:00,5,20889099,201908
OK,76,56,922,76,2014-08-02T13:00:00,2,20889548,201908
OK,87,49,922,87,2014-08-02T13:05:00,3,20889997,201908
OK,78,54,922,78,2014-08-02T13:10:00,2,20890446,201908
OK,85,50,922,85,2014-08-02T13:15:00,2,20890895,201908
OK,85,50,922,85,2014-08-02T13:20:00,3,20891344,201908
OK,90,47,922,90,2014-08-02T13:25:00,2,20891793,201908
OK,105,40,922,105,2014-08-02T13:30:00,2,20892242,201908
OK,136,31,922,136,2014-08-02T13:35:00,4,20892691,201908
OK,138,31,922,138,2014-08-02T13:40:00,3,20893140,201908
OK,144,29,922,144,2014-08-02T13:45:00,0,20893589,201908
OK,144,29,922,144,2014-08-02T13:50:00,0,20894038,201908
OK,103,41,922,103,2014-08-02T13:55:00,1,20894487,201908
OK,88,48,922,88,2014-08-02T14:00:00,2,20894936,201908
OK,74,57,922,74,2014-08-02T14:05:00,1,20895385,201908
OK,74,57,922,74,2014-08-02T14:10:00,0,20895834,201908
OK,76,56,922,76,2014-08-02T14:15:00,3,20896283,201908
OK,77,55,922,77,2014-08-02T14:20:00,4,20896732,201908
OK,65,65,922,65,2014-08-02T14:25:00,2,20897181,201908
OK,111,38,922,111,2014-08-02T14:30:00,3,20897630,201908
OK,115,37,922,115,2014-08-02T14:35:00,5,20898079,201908
OK,112,38,922,112,2014-08-02T14:40:00,7,20898528,201908
OK,98,43,922,98,2014-08-02T14:45:00,6,20898977,201908
OK,91,47,922,91,2014-08-02T14:50:00,4,20899426,201908
OK,75,57,922,75,2014-08-02T14:55:00,6,20899875,201908
OK,86,49,922,86,2014-08-02T15:00:00,6,20900324,201908
OK,143,29,922,143,2014-08-02T15:05:00,1,20900773,201908
OK,91,47,922,91,2014-08-02T15:10:00,1,20901222,201908
OK,57,75,922,57,2014-08-02T15:15:00,1,20901671,201908
OK,57,75,922,57,2014-08-02T15:20:00,1,20902120,201908
OK,71,60,922,71,2014-08-02T15:25:00,1,20902569,201908
OK,95,45,922,95,2014-08-02T15:30:00,1,20903018,201908
OK,95,45,922,95,2014-08-02T15:35:00,1,20903467,201908
OK,95,45,922,95,2014-08-02T15:40:00,0,20903916,201908
OK,98,43,922,98,2014-08-02T15:45:00,2,20904365,201908
OK,98,43,922,98,2014-08-02T15:50:00,2,20904814,201908
OK,72,59,922,72,2014-08-02T15:55:00,2,20905263,201908
OK,88,48,922,88,2014-08-02T16:00:00,2,20905712,201908
OK,102,42,922,102,2014-08-02T16:05:00,3,20906161,201908
OK,121,35,922,121,2014-08-02T16:10:00,3,20906610,201908
OK,104,41,922,104,2014-08-02T16:15:00,2,20907059,201908
OK,67,63,922,67,2014-08-02T16:20:00,2,20907508,201908
OK,56,76,922,56,2014-08-02T16:25:00,1,20907957,201908
OK,56,76,922,56,2014-08-02T16:30:00,0,20908406,201908
OK,75,57,922,75,2014-08-02T16:35:00,1,20908855,201908
OK,70,61,922,70,2014-08-02T16:40:00,2,20909304,201908
OK,78,54,922,78,2014-08-02T16:45:00,3,20909753,201908
OK,118,36,922,118,2014-08-02T16:50:00,3,20910202,201908
OK,111,38,922,111,2014-08-02T16:55:00,1,20910651,201908
OK,65,65,922,65,2014-08-02T17:00:00,1,20911100,201908
OK,72,59,922,72,2014-08-02T17:05:00,2,20911549,201908
OK,108,39,922,108,2014-08-02T17:10:00,2,20911998,201908
OK,118,36,922,118,2014-08-02T17:15:00,2,20912447,201908
OK,100,42,922,100,2014-08-02T17:20:00,1,20912896,201908
OK,100,42,922,100,2014-08-02T17:25:00,0,20913345,201908
OK,139,30,922,139,2014-08-02T17:30:00,1,20913794,201908
OK,139,30,922,139,2014-08-02T17:35:00,1,20914243,201908
OK,139,30,922,139,2014-08-02T17:40:00,0,20914692,201908
OK,80,53,922,80,2014-08-02T17:45:00,1,20915141,201908
OK,80,53,922,80,2014-08-02T17:50:00,1,20915590,201908
OK,80,53,922,80,2014-08-02T17:55:00,0,20916039,201908
OK,80,53,922,80,2014-08-02T18:00:00,0,20916488,201908
OK,130,32,922,130,2014-08-02T18:05:00,1,20916937,201908
OK,86,49,922,86,2014-08-02T18:10:00,2,20917386,201908
OK,86,49,922,86,2014-08-02T18:15:00,2,20917835,201908
OK,54,79,922,54,2014-08-02T18:20:00,0,20918284,201908
OK,92,46,922,92,2014-08-02T18:25:00,1,20918733,201908
OK,92,46,922,92,2014-08-02T18:30:00,1,20919182,201908
OK,70,61,922,70,2014-08-02T18:35:00,2,20919631,201908
OK,70,61,922,70,2014-08-02T18:40:00,2,20920080,201908
OK,81,52,922,81,2014-08-02T18:45:00,0,20920529,201908
OK,99,43,922,99,2014-08-02T18:50:00,1,20920978,201908
OK,99,43,922,99,2014-08-02T18:55:00,1,20921427,201908
OK,96,44,922,96,2014-08-02T19:00:00,1,20921876,201908
OK,96,44,922,96,2014-08-02T19:05:00,1,20922325,201908
OK,88,48,922,88,2014-08-02T19:10:00,1,20922774,201908
OK,100,42,922,100,2014-08-02T19:15:00,1,20923223,201908
OK,100,42,922,100,2014-08-02T19:20:00,0,20923672,201908
OK,100,42,922,100,2014-08-02T19:25:00,0,20924121,201908
OK,64,66,922,64,2014-08-02T19:30:00,1,20924570,201908
OK,64,66,922,64,2014-08-02T19:35:00,1,20925019,201908
OK,64,66,922,64,2014-08-02T19:40:00,0,20925468,201908
OK,64,66,922,64,2014-08-02T19:45:00,0,20925917,201908
OK,64,66,922,64,2014-08-02T19:50:00,0,20926366,201908
OK,64,66,922,64,2014-08-02T19:55:00,0,20926815,201908
OK,64,66,922,64,2014-08-02T20:00:00,0,20927264,201908
OK,64,66,922,64,2014-08-02T20:05:00,0,20927713,201908
OK,64,66,922,64,2014-08-02T20:10:00,0,20928162,201908
OK,98,43,922,98,2014-08-02T20:15:00,1,20928611,201908
OK,96,44,922,96,2014-08-02T20:20:00,2,20929060,201908
OK,94,45,922,94,2014-08-02T20:25:00,3,20929509,201908
OK,93,46,922,93,2014-08-02T20:30:00,3,20929958,201908
OK,79,54,922,79,2014-08-02T20:35:00,3,20930407,201908
OK,96,44,922,96,2014-08-02T20:40:00,2,20930856,201908
OK,86,49,922,86,2014-08-02T20:45:00,1,20931305,201908
OK,102,42,922,102,2014-08-02T20:50:00,2,20931754,201908
OK,118,36,922,118,2014-08-02T20:55:00,1,20932203,201908
OK,56,76,922,56,2014-08-02T21:00:00,1,20932652,201908
OK,56,76,922,56,2014-08-02T21:05:00,1,20933101,201908
OK,56,76,922,56,2014-08-02T21:10:00,0,20933550,201908
OK,56,76,922,56,2014-08-02T21:15:00,0,20933999,201908
OK,56,76,922,56,2014-08-02T21:20:00,0,20934448,201908
OK,56,76,922,56,2014-08-02T21:25:00,0,20934897,201908
OK,56,76,922,56,2014-08-02T21:30:00,0,20935346,201908
OK,56,76,922,56,2014-08-02T21:35:00,0,20935795,201908
OK,56,76,922,56,2014-08-02T21:40:00,0,20936244,201908
OK,56,76,922,56,2014-08-02T21:45:00,0,20936693,201908
OK,56,76,922,56,2014-08-02T21:50:00,0,20937142,201908
OK,73,58,922,73,2014-08-02T21:55:00,1,20937591,201908
OK,73,58,922,73,2014-08-02T22:00:00,0,20938040,201908
OK,73,58,922,73,2014-08-02T22:05:00,0,20938489,201908
OK,90,47,922,90,2014-08-02T22:10:00,1,20938938,201908
OK,121,35,922,121,2014-08-02T22:15:00,1,20939387,201908
OK,121,35,922,121,2014-08-02T22:20:00,1,20939836,201908
OK,76,56,922,76,2014-08-02T22:25:00,1,20940285,201908
OK,125,34,922,125,2014-08-02T22:30:00,2,20940734,201908
OK,125,34,922,125,2014-08-02T22:35:00,2,20941183,201908
OK,125,34,922,125,2014-08-02T22:40:00,0,20941632,201908
OK,78,54,922,78,2014-08-02T22:45:00,1,20942081,201908
OK,78,54,922,78,2014-08-02T22:50:00,1,20942530,201908
OK,78,54,922,78,2014-08-02T22:55:00,0,20942979,201908
OK,78,54,922,78,2014-08-02T23:00:00,0,20943428,201908
OK,78,54,922,78,2014-08-02T23:10:00,0,20943877,201908
OK,78,54,922,78,2014-08-02T23:15:00,0,20944326,201908
OK,73,58,922,73,2014-08-02T23:20:00,1,20944775,201908
OK,73,58,922,73,2014-08-02T23:25:00,1,20945224,201908
OK,85,50,922,85,2014-08-02T23:30:00,1,20945673,201908
OK,85,50,922,85,2014-08-02T23:35:00,0,20946122,201908
OK,85,50,922,85,2014-08-02T23:40:00,0,20946571,201908
OK,74,57,922,74,2014-08-02T23:45:00,0,20947020,201908
OK,74,57,922,74,2014-08-02T23:50:00,0,20947469,201908
OK,74,57,922,74,2014-08-02T23:55:00,0,20947918,201908
OK,74,57,922,74,2014-08-03T00:00:00,0,20948367,201908
OK,74,57,922,74,2014-08-03T00:05:00,0,20948816,201908
OK,74,57,922,74,2014-08-03T00:10:00,0,20949264,201908
OK,74,57,922,74,2014-08-03T00:15:00,0,20949713,201908
OK,74,57,922,74,2014-08-03T00:20:00,0,20950162,201908
OK,74,57,922,74,2014-08-03T00:25:00,0,20950611,201908
OK,74,57,922,74,2014-08-03T00:30:00,0,20951060,201908
OK,74,57,922,74,2014-08-03T00:35:00,0,20951509,201908
OK,74,57,922,74,2014-08-03T00:40:00,0,20951958,201908
OK,74,57,922,74,2014-08-03T00:45:00,0,20952407,201908
OK,74,57,922,74,2014-08-03T00:50:00,0,20952856,201908
OK,74,57,922,74,2014-08-03T00:55:00,0,20953305,201908
OK,74,57,922,74,2014-08-03T01:00:00,0,20953754,201908
OK,74,57,922,74,2014-08-03T01:05:00,0,20954203,201908
OK,74,57,922,74,2014-08-03T01:10:00,0,20954652,201908
OK,74,57,922,74,2014-08-03T01:15:00,0,20955101,201908
OK,74,57,922,74,2014-08-03T01:20:00,0,20955550,201908
OK,74,57,922,74,2014-08-03T01:25:00,0,20955999,201908
OK,74,57,922,74,2014-08-03T01:30:00,0,20956448,201908
OK,74,57,922,74,2014-08-03T01:35:00,0,20956897,201908
OK,74,57,922,74,2014-08-03T01:40:00,0,20957346,201908
OK,74,57,922,74,2014-08-03T01:45:00,0,20957795,201908